Home > Weather > Ganganagar > Past weeks

Flag for India Past Weather in Ganganagar, Rajasthan, India — Yesterday and Last 2 Weeks

Now
95 °F

Clear.


Feels Like: 97 °F
Forecast: 86 / 111 °F
Wind: No wind

Location: Lahore Airport

Current Time: May 31, 2016 at 1:24:38 PM

Latest Report: May 31, 2016 at 12:25 PM


Visibility: 5 mi

Pressure: 29.68 "Hg

Humidity: 36%

Dew Point: 64 °F

Location of GanganagarLocation

Past Weather in Ganganagar — Graph

°F

Ganganagar Temperature Yesterday

Maximum temperature yesterday: 91 °F (at 4:25 PM)
Minimum temperature yesterday: 68 °F (at 4:25 AM)
Average temperature yesterday: 82 °F

High & Low Weather Summary for the Past Weeks

 TemperatureHumidityPressure
High115 °F (May 18, 3:25 PM)88% (May 30, 4:25 AM)29.74 "Hg (May 30, 4:25 AM)
Low68 °F (May 30, 4:25 AM)9% (May 18, 2:55 PM)29.33 "Hg (May 23, 9:55 PM)
Average93 °F37%29.52 "Hg
* Reported May 16 11:55 AM — May 31 11:55 AM, Ganganagar, Weather by CustomWeather, © 2016

Note: Actual official high and low records may vary slightly from our data, if they occured in-between our weather recording intervals... More about our weather records

Advertising

Ganganagar Weather History for the Previous 24 Hours

Scroll right to see more
 ConditionsComfort  
Time TempWeatherWind HumidityBarometerVisibility
11:55 AM
Tue, May 31
95 °FClear.3 mph36%29.68 "Hg5 mi
11:25 AM93 °FClear.7 mph39%29.68 "Hg5 mi
10:55 AM93 °FPassing clouds.7 mph41%29.71 "Hg5 mi
10:25 AM91 °FPassing clouds.7 mph44%29.71 "Hg4 mi
9:55 AM90 °FPassing clouds.6 mph46%29.71 "Hg4 mi
9:25 AM88 °FClear.5 mph49%29.68 "Hg4 mi
8:55 AM86 °FClear.5 mph52%29.68 "Hg4 mi
8:29 AM84 °FClear.5 mph55%29.68 "Hg4 mi
7:59 AM81 °FClear.7 mph66%29.68 "Hg3 mi
7:29 AM79 °FClear.5 mph70%29.68 "Hg2 mi
6:55 AM77 °FClear.5 mph69%29.68 "Hg2 mi
6:25 AM75 °FClear.5 mph74%29.65 "Hg2 mi
5:55 AM75 °FClear.5 mph74%29.65 "Hg2 mi
5:25 AM77 °FClear.5 mph74%29.65 "Hg3 mi
4:55 AM77 °FClear.7 mph74%29.65 "Hg3 mi
4:25 AM77 °FClear.No wind79%29.65 "Hg3 mi
3:55 AM77 °FClear.No wind79%29.62 "Hg3 mi
3:25 AM77 °FClear.No wind79%29.62 "Hg3 mi
2:59 AM79 °FClear.No wind70%29.62 "Hg3 mi
1:59 AM79 °FClear.No wind70%29.65 "Hg3 mi
1:29 AM79 °FClear.5 mph70%29.65 "Hg3 mi
12:59 AM81 °FPassing clouds.7 mph66%29.65 "Hg3 mi
12:29 AM81 °FPassing clouds.6 mph66%29.65 "Hg3 mi
11:59 PM
Mon, May 30
81 °FPassing clouds.6 mph62%29.65 "Hg3 mi
11:29 PM81 °FPassing clouds.6 mph62%29.65 "Hg3 mi
10:59 PM82 °FPassing clouds.5 mph58%29.65 "Hg3 mi
10:29 PM82 °FPassing clouds.7 mph58%29.65 "Hg3 mi
9:55 PM84 °FPassing clouds.7 mph51%29.65 "Hg3 mi
9:25 PM84 °FPassing clouds.7 mph51%29.65 "Hg3 mi
8:55 PM86 °FPassing clouds.7 mph52%29.65 "Hg3 mi
7:55 PM88 °FPassing clouds.6 mph49%29.65 "Hg3 mi
7:25 PM90 °FScattered clouds.6 mph46%29.62 "Hg3 mi
6:55 PM90 °FHaze.8 mph43%29.62 "Hg3 mi
6:25 PM90 °FHaze.8 mph43%29.62 "Hg3 mi
5:55 PM90 °FPassing clouds.9 mph46%29.59 "Hg4 mi
5:25 PM91 °FPassing clouds.9 mph44%29.59 "Hg4 mi
4:55 PM91 °FPassing clouds.9 mph46%29.59 "Hg4 mi
4:25 PM91 °FPassing clouds.9 mph46%29.62 "Hg4 mi
3:25 PM90 °FScattered clouds.12 mph46%29.62 "Hg4 mi
2:25 PM86 °FScattered clouds.13 mph49%29.65 "Hg4 mi
1:55 PM84 °FScattered clouds.N/A51%29.65 "Hg4 mi
1:25 PM84 °FScattered clouds.13 mph51%29.65 "Hg4 mi
Weather by CustomWeather, © 2016

See weather overviewHow to use our weather pages